User: anonymous   Login
Location: Champaign/Urbana Astronomical Society Observatory
(40.0333°N, 88.2833°W)
Time: 22:39:13
(UTC-05:00)
Language:

KKS-1 - Orbit

View from above orbital plane
View from above orbital plane
View from above satellite
View from above satellite

Ground track
Ground track

The orbit data is extracted from the following two-line orbital elements,

1 33499U 09002H   19142.81917984  .00000064  00000-0  17521-4 0  9993
2 33499  98.3519 340.6678 0008000 296.1816  63.8569 14.75435016555266
Epoch (UTC): 22 May 2019 19:39:37
Eccentricity: 0.0008000
inclination: 98.3519°
perigee height: 638 km
apogee height: 649 km
right ascension of ascending node: 340.6678°
argument of perigee: 296.1816°
revolutions per day: 14.75435016
mean anomaly at epoch: 63.8569°
orbit number at epoch: 55526

The dashed part of the orbit path shows where the satellite is in the earth's shadow,  

DLR